contact:dominique.lefevre@mio.osupytheas.fr, maurice.libes@osupytheas.fr, didier.mallarino@osupytheas.fr
Project:EMSO http://www.emso-fr.org/EMSO-France
Depth: 2436.0 m
Title:EMSO Ligure Ouest : Data MII capteur AQUADOPP
Date,Latitude,Longitude,X_East,Y_North,Z_Up,Amplitude_X,Amplitude_Y,Amplitude_Z,Batterie,SoundSpeed,Heading,Pitch,Roll,Pressure,TIS,Speed,Direction
, degrees North, degrees East, m.s-1, m.s-1,m.s-1, 1, 1, 1, Volt, m.s-1, degree, degree, degree, dbar, degree_C, m.s-1, degree
2019-08-19T00:00:41,42.805,6.029,-0.012,-0.015,-0.01,102.0,105.0,99.0,13.4,1505.3,325.3,-0.8,1.8,2470.143,13.33,0.019,218.7
2019-08-19T00:03:42,42.805,6.029,0.024,-0.015,-0.004,104.0,106.0,100.0,13.4,1505.3,326.5,-0.7,1.8,2470.141,13.33,0.028,122.0
2019-08-19T00:06:43,42.805,6.029,0.017,0.0,0.0,104.0,104.0,99.0,13.4,1505.3,328.1,-0.7,1.8,2470.147,13.33,0.017,90.0
2019-08-19T00:09:44,42.805,6.029,0.01,-0.021,0.0,103.0,104.0,100.0,13.4,1505.3,324.4,-0.7,1.8,2470.103,13.33,0.023,154.5
2019-08-19T00:12:45,42.805,6.029,0.019,-0.008,-0.025,105.0,105.0,100.0,13.3,1505.3,325.0,-0.7,1.9,2470.164,13.33,0.02,112.8
2019-08-19T00:15:46,42.805,6.029,-0.002,-0.019,-0.009,103.0,105.0,100.0,13.4,1505.3,326.0,-0.7,1.8,2470.133,13.33,0.019,186.0
2019-08-19T00:18:47,42.805,6.029,0.035,0.013,0.024,103.0,105.0,99.0,13.3,1505.3,324.8,-0.7,1.8,2470.148,13.33,0.037,69.6
2019-08-19T00:21:48,42.805,6.029,0.005,-0.012,-0.05,103.0,105.0,100.0,13.3,1505.3,328.0,-0.7,1.9,2470.142,13.33,0.013,157.4
2019-08-19T00:24:49,42.805,6.029,0.021,-0.009,-0.008,104.0,104.0,100.0,13.3,1505.3,325.6,-0.7,1.8,2470.076,13.33,0.022,113.2
2019-08-19T00:27:50,42.805,6.029,-0.019,-0.003,-0.025,104.0,105.0,100.0,13.3,1505.3,323.6,-0.7,1.9,2470.127,13.33,0.019,261.0
2019-08-19T00:30:51,42.805,6.029,-0.018,-0.029,-0.032,103.0,106.0,100.0,13.4,1505.3,325.1,-0.7,1.9,2470.111,13.33,0.034,211.8
2019-08-19T00:33:52,42.805,6.029,-0.012,0.014,-0.037,103.0,106.0,99.0,13.3,1505.3,323.9,-0.7,1.8,2470.086,13.33,0.018,319.4
2019-08-19T00:36:53,42.805,6.029,0.0,0.002,-0.01,102.0,105.0,100.0,13.3,1505.3,326.3,-0.7,1.9,2470.125,13.33,0.002,0.0
2019-08-19T00:39:54,42.805,6.029,0.007,-0.009,-0.03,102.0,105.0,99.0,13.4,1505.3,325.1,-0.7,1.9,2470.134,13.33,0.011,142.1
2019-08-19T00:42:55,42.805,6.029,-0.009,-0.02,-0.038,102.0,105.0,100.0,13.4,1505.3,324.5,-0.7,1.9,2470.107,13.33,0.021,204.2
2019-08-19T00:45:56,42.805,6.029,-0.01,-0.003,-0.037,103.0,105.0,101.0,13.4,1505.3,323.7,-0.7,1.8,2470.129,13.33,0.01,253.3
2019-08-19T00:48:57,42.805,6.029,0.056,-0.01,-0.015,103.0,106.0,98.0,13.3,1505.3,325.6,-0.7,1.8,2470.121,13.33,0.056,100.1
2019-08-19T00:51:58,42.805,6.029,0.068,0.0,0.033,103.0,107.0,100.0,13.4,1505.3,326.5,-0.7,1.9,2470.055,13.33,0.067,90.0
2019-08-19T00:54:59,42.805,6.029,0.054,-0.003,0.03,103.0,106.0,101.0,13.4,1505.3,326.8,-0.7,1.8,2470.097,13.33,0.054,93.2
2019-08-19T00:58:00,42.805,6.029,0.049,-0.015,-0.013,103.0,108.0,99.0,13.4,1505.3,326.1,-0.7,1.9,2470.117,13.33,0.051,107.0
2019-08-19T01:01:01,42.805,6.029,0.022,-0.024,-0.027,103.0,105.0,99.0,13.4,1505.3,326.8,-0.7,1.8,2470.102,13.33,0.032,137.5
2019-08-19T01:04:02,42.805,6.029,0.031,-0.017,0.02,104.0,105.0,101.0,13.4,1505.3,324.0,-0.7,1.8,2470.105,13.33,0.035,118.7
2019-08-19T01:07:03,42.805,6.029,0.02,-0.014,-0.019,103.0,105.0,100.0,13.4,1505.3,326.6,-0.7,1.8,2470.113,13.33,0.024,125.0
2019-08-19T01:10:04,42.805,6.029,0.013,-0.015,-0.03,103.0,106.0,98.0,13.4,1505.3,325.5,-0.7,1.9,2470.11,13.33,0.019,139.1
2019-08-19T01:13:05,42.805,6.029,0.029,-0.028,-0.023,103.0,107.0,98.0,13.4,1505.3,327.9,-0.7,1.9,2470.161,13.33,0.04,134.0
2019-08-19T01:16:06,42.805,6.029,-0.002,-0.007,-0.039,102.0,107.0,101.0,13.3,1505.3,325.9,-0.7,1.8,2470.143,13.33,0.007,195.9
2019-08-19T01:19:07,42.805,6.029,0.034,-0.004,-0.002,104.0,107.0,100.0,13.4,1505.3,328.1,-0.7,1.8,2470.096,13.33,0.034,96.7
2019-08-19T01:22:08,42.805,6.029,0.041,0.004,-0.012,104.0,106.0,100.0,13.3,1505.3,324.4,-0.7,1.8,2470.099,13.33,0.041,84.4
2019-08-19T01:25:09,42.805,6.029,0.037,-0.002,-0.004,103.0,105.0,100.0,13.3,1505.3,325.4,-0.7,1.8,2470.104,13.33,0.037,93.1
2019-08-19T01:28:10,42.805,6.029,-0.005,-0.016,-0.039,101.0,107.0,100.0,13.3,1505.3,323.2,-0.7,1.8,2470.117,13.33,0.016,197.4
2019-08-19T01:31:11,42.805,6.029,0.011,-0.003,-0.024,104.0,109.0,100.0,13.4,1505.3,327.6,-0.7,1.8,2470.073,13.33,0.011,105.3
2019-08-19T01:34:12,42.805,6.029,0.046,-0.009,0.026,103.0,105.0,101.0,13.4,1505.3,325.9,-0.7,1.9,2470.098,13.33,0.046,101.1
2019-08-19T01:37:13,42.805,6.029,0.041,-0.013,-0.002,103.0,107.0,100.0,13.3,1505.3,326.3,-0.7,1.8,2470.066,13.33,0.043,107.6
2019-08-19T01:40:14,42.805,6.029,0.014,-0.013,-0.016,102.0,106.0,101.0,13.4,1505.3,325.3,-0.7,1.8,2470.056,13.33,0.019,132.9
2019-08-19T01:43:15,42.805,6.029,0.009,-0.013,0.01,103.0,108.0,100.0,13.4,1505.3,325.5,-0.7,1.8,2470.092,13.33,0.015,145.3
2019-08-19T01:46:16,42.805,6.029,0.021,0.008,0.001,107.0,107.0,100.0,13.3,1505.3,327.0,-0.7,1.8,2470.072,13.33,0.022,69.1
2019-08-19T01:49:17,42.805,6.029,0.034,-0.012,-0.053,103.0,106.0,101.0,13.3,1505.3,326.0,-0.7,1.8,2470.068,13.33,0.036,109.4
2019-08-19T01:52:18,42.805,6.029,0.062,0.004,0.014,102.0,107.0,100.0,13.3,1505.3,327.9,-0.7,1.8,2470.081,13.33,0.062,86.3
2019-08-19T01:55:19,42.805,6.029,0.044,0.005,0.021,102.0,107.0,100.0,13.4,1505.3,325.7,-0.7,1.8,2470.098,13.33,0.044,83.5
2019-08-19T01:58:20,42.805,6.029,0.042,-0.013,0.0,104.0,106.0,100.0,13.4,1505.3,325.0,-0.7,1.9,2470.087,13.33,0.043,107.2
2019-08-19T02:01:21,42.805,6.029,0.014,-0.003,-0.016,103.0,105.0,99.0,13.3,1505.3,322.9,-0.6,1.8,2470.042,13.33,0.014,102.1
2019-08-19T02:04:22,42.805,6.029,0.025,-0.018,-0.026,104.0,105.0,100.0,13.4,1505.3,324.1,-0.7,1.8,2470.067,13.33,0.03,125.8
2019-08-19T02:07:23,42.805,6.029,-0.011,-0.005,-0.038,103.0,106.0,100.0,13.4,1505.3,328.7,-0.7,1.8,2470.071,13.33,0.012,245.6
2019-08-19T02:10:24,42.805,6.029,0.046,0.002,0.0,102.0,105.0,100.0,13.4,1505.3,328.1,-0.7,1.8,2470.046,13.33,0.046,87.5
2019-08-19T02:13:25,42.805,6.029,0.031,-0.004,-0.012,103.0,107.0,99.0,13.4,1505.3,327.3,-0.7,1.9,2470.093,13.33,0.031,97.3
2019-08-19T02:16:26,42.805,6.029,0.024,-0.013,-0.006,102.0,106.0,100.0,13.4,1505.3,326.8,-0.7,1.9,2470.094,13.33,0.027,118.4
2019-08-19T02:19:27,42.805,6.029,0.0,-0.009,-0.012,102.0,107.0,101.0,13.4,1505.3,328.5,-0.7,1.9,2470.073,13.33,0.009,180.0
2019-08-19T02:22:28,42.805,6.029,0.008,-0.027,-0.011,102.0,105.0,100.0,13.4,1505.3,325.8,-0.7,1.8,2470.083,13.33,0.028,163.5
2019-08-19T02:25:29,42.805,6.029,0.037,0.008,-0.035,102.0,106.0,100.0,13.4,1505.3,326.3,-0.7,1.8,2470.047,13.33,0.037,77.8
2019-08-19T02:28:30,42.805,6.029,0.031,0.018,-0.04,104.0,105.0,98.0,13.3,1505.3,325.6,-0.7,1.8,2470.06,13.33,0.035,59.9
2019-08-19T02:31:31,42.805,6.029,0.03,-0.018,-0.008,103.0,105.0,99.0,13.4,1505.3,324.3,-0.7,1.8,2470.081,13.33,0.034,121.0
2019-08-19T02:34:32,42.805,6.029,0.042,-0.001,-0.018,102.0,105.0,99.0,13.4,1505.3,326.1,-0.7,1.8,2470.107,13.33,0.042,91.4
2019-08-19T02:37:33,42.805,6.029,0.042,-0.006,-0.002,101.0,107.0,100.0,13.4,1505.3,325.4,-0.7,1.8,2470.08,13.33,0.042,98.1
2019-08-19T02:40:34,42.805,6.029,0.0,-0.009,-0.055,103.0,106.0,99.0,13.3,1505.3,325.9,-0.7,1.8,2470.09,13.33,0.009,180.0
2019-08-19T02:43:35,42.805,6.029,0.02,-0.003,-0.028,104.0,105.0,99.0,13.4,1505.3,324.9,-0.7,1.8,2470.039,13.33,0.02,98.5
2019-08-19T02:46:36,42.805,6.029,0.004,-0.013,-0.025,104.0,107.0,99.0,13.4,1505.3,325.2,-0.7,1.9,2470.068,13.33,0.013,162.9
2019-08-19T02:49:37,42.805,6.029,0.045,-0.003,-0.052,104.0,106.0,100.0,13.4,1505.3,326.1,-0.7,1.8,2470.061,13.33,0.045,93.8
2019-08-19T02:52:38,42.805,6.029,0.032,-0.015,-0.009,103.0,107.0,99.0,13.4,1505.3,324.0,-0.7,1.8,2470.06,13.33,0.035,115.1
2019-08-19T02:55:39,42.805,6.029,0.054,0.005,-0.016,103.0,106.0,99.0,13.4,1505.3,325.8,-0.7,1.8,2470.074,13.33,0.054,84.7
2019-08-19T02:58:40,42.805,6.029,0.045,-0.023,0.006,106.0,107.0,101.0,13.4,1505.3,328.2,-0.7,1.9,2470.086,13.33,0.05,117.1
2019-08-19T03:01:41,42.805,6.029,0.013,-0.008,0.003,103.0,105.0,100.0,13.4,1505.3,326.5,-0.7,1.8,2470.07,13.33,0.015,121.6
2019-08-19T03:04:42,42.805,6.029,0.032,-0.022,-0.061,104.0,107.0,101.0,13.3,1505.3,325.9,-0.7,1.8,2470.061,13.33,0.038,124.5
2019-08-19T03:07:43,42.805,6.029,0.017,-0.015,-0.054,103.0,105.0,100.0,13.4,1505.3,323.3,-0.7,1.8,2470.03,13.33,0.022,131.4
2019-08-19T03:10:44,42.805,6.029,0.004,0.0,-0.042,103.0,105.0,100.0,13.3,1505.3,327.2,-0.7,1.8,2470.071,13.33,0.004,90.0
2019-08-19T03:13:45,42.805,6.029,-0.008,-0.004,-0.036,102.0,107.0,99.0,13.4,1505.3,325.7,-0.7,1.9,2470.013,13.33,0.008,243.4
2019-08-19T03:16:46,42.805,6.029,0.001,-0.017,-0.021,103.0,106.0,100.0,13.3,1505.3,326.3,-0.7,1.8,2470.019,13.33,0.017,176.6
2019-08-19T03:19:47,42.805,6.029,-0.008,-0.029,-0.04,103.0,105.0,100.0,13.3,1505.3,323.3,-0.7,1.8,2470.008,13.33,0.03,195.4
2019-08-19T03:22:48,42.805,6.029,0.018,-0.014,-0.014,103.0,108.0,100.0,13.3,1505.3,327.0,-0.7,1.8,2470.04,13.33,0.022,127.9
2019-08-19T03:25:49,42.805,6.029,0.034,0.01,-0.037,102.0,108.0,100.0,13.4,1505.3,327.7,-0.7,1.8,2470.047,13.33,0.035,73.6
2019-08-19T03:28:50,42.805,6.029,0.011,-0.004,-0.041,103.0,107.0,100.0,13.3,1505.3,327.6,-0.7,1.8,2470.041,13.33,0.011,110.0
2019-08-19T03:31:51,42.805,6.029,0.008,-0.035,-0.046,103.0,107.0,100.0,13.4,1505.3,328.4,-0.7,1.8,2470.057,13.33,0.035,167.1
2019-08-19T03:34:52,42.805,6.029,0.023,-0.013,-0.019,104.0,107.0,100.0,13.3,1505.3,326.5,-0.7,1.9,2470.07,13.33,0.026,119.5
2019-08-19T03:37:53,42.805,6.029,0.008,-0.015,-0.014,103.0,109.0,101.0,13.4,1505.3,325.9,-0.7,1.8,2470.037,13.32,0.017,151.9
2019-08-19T03:40:54,42.805,6.029,0.028,-0.023,-0.009,102.0,107.0,100.0,13.4,1505.3,325.4,-0.7,1.9,2470.089,13.32,0.036,129.4
2019-08-19T03:43:55,42.805,6.029,0.01,-0.006,-0.023,104.0,108.0,100.0,13.4,1505.3,326.3,-0.7,1.8,2470.012,13.32,0.011,121.0
2019-08-19T03:46:56,42.805,6.029,0.028,-0.02,-0.045,104.0,107.0,100.0,13.3,1505.3,326.3,-0.7,1.8,2470.053,13.32,0.034,125.5
2019-08-19T03:49:57,42.805,6.029,-0.004,-0.01,-0.007,102.0,106.0,99.0,13.3,1505.3,327.0,-0.7,1.8,2470.021,13.32,0.01,201.8
2019-08-19T03:52:58,42.805,6.029,0.028,-0.024,-0.017,104.0,105.0,100.0,13.4,1505.3,325.3,-0.7,1.8,2470.056,13.32,0.036,130.6
2019-08-19T03:55:59,42.805,6.029,0.026,-0.003,-0.021,104.0,108.0,99.0,13.4,1505.3,325.8,-0.7,1.9,2470.075,13.32,0.026,96.6
2019-08-19T03:59:00,42.805,6.029,0.017,-0.035,0.0,103.0,107.0,100.0,13.4,1505.3,326.7,-0.7,1.8,2470.045,13.32,0.038,154.1
2019-08-19T04:02:01,42.805,6.029,-0.015,-0.013,-0.053,103.0,106.0,99.0,13.4,1505.3,326.5,-0.7,1.8,2470.051,13.32,0.019,229.1
2019-08-19T04:05:02,42.805,6.029,0.027,-0.012,-0.043,102.0,106.0,100.0,13.3,1505.3,326.0,-0.7,1.8,2470.045,13.33,0.029,114.0
2019-08-19T04:08:03,42.805,6.029,0.034,-0.006,-0.012,104.0,106.0,100.0,13.3,1505.3,323.5,-0.7,1.8,2470.034,13.33,0.034,100.0
2019-08-19T04:11:04,42.805,6.029,0.013,-0.002,-0.014,104.0,107.0,100.0,13.3,1505.3,323.7,-0.8,1.8,2470.028,13.33,0.013,98.7
2019-08-19T04:14:05,42.805,6.029,0.021,-0.026,-0.048,103.0,106.0,100.0,13.3,1505.3,324.5,-0.7,1.8,2470.017,13.33,0.033,141.1
2019-08-19T04:17:06,42.805,6.029,0.014,-0.024,-0.031,103.0,106.0,99.0,13.4,1505.3,327.4,-0.7,1.8,2470.062,13.33,0.027,149.7
2019-08-19T04:20:07,42.805,6.029,0.005,-0.031,-0.032,102.0,107.0,100.0,13.4,1505.3,325.8,-0.7,1.8,2470.062,13.33,0.031,170.8
2019-08-19T04:23:08,42.805,6.029,0.045,-0.02,-0.046,102.0,104.0,100.0,13.4,1505.3,328.1,-0.7,1.8,2470.054,13.33,0.049,114.0
2019-08-19T04:26:09,42.805,6.029,-0.014,-0.014,-0.031,104.0,105.0,99.0,13.3,1505.3,324.2,-0.7,1.8,2470.032,13.33,0.019,225.0
2019-08-19T04:29:10,42.805,6.029,0.041,0.0,-0.026,103.0,106.0,99.0,13.4,1505.3,323.3,-0.7,1.8,2469.997,13.33,0.041,90.0
2019-08-19T04:32:11,42.805,6.029,0.02,-0.023,-0.038,102.0,103.0,100.0,13.4,1505.3,328.4,-0.7,1.8,2470.047,13.33,0.03,139.0
2019-08-19T04:35:12,42.805,6.029,0.018,-0.02,-0.033,102.0,106.0,99.0,13.4,1505.3,327.5,-0.7,1.8,2470.023,13.33,0.026,138.0
2019-08-19T04:38:13,42.805,6.029,0.033,-0.026,-0.013,104.0,107.0,100.0,13.3,1505.3,325.9,-0.7,1.8,2470.026,13.33,0.042,128.2
2019-08-19T04:41:14,42.805,6.029,0.007,0.007,-0.021,103.0,105.0,100.0,13.4,1505.3,324.2,-0.7,1.8,2470.029,13.33,0.009,45.0
2019-08-19T04:44:15,42.805,6.029,0.015,-0.031,-0.044,103.0,107.0,99.0,13.4,1505.3,327.6,-0.7,1.8,2470.027,13.33,0.034,154.2
2019-08-19T04:47:16,42.805,6.029,-0.02,-0.024,-0.035,105.0,105.0,99.0,13.4,1505.3,325.4,-0.7,1.9,2470.009,13.33,0.031,219.8
2019-08-19T04:50:17,42.805,6.029,0.052,-0.006,0.005,105.0,107.0,99.0,13.4,1505.3,325.3,-0.7,1.8,2470.051,13.33,0.052,96.6
2019-08-19T04:53:18,42.805,6.029,0.041,-0.021,-0.029,103.0,106.0,100.0,13.4,1505.3,325.8,-0.7,1.8,2470.063,13.33,0.046,117.1
2019-08-19T04:56:19,42.805,6.029,-0.02,-0.024,-0.072,103.0,106.0,101.0,13.4,1505.3,322.9,-0.7,1.8,2470.046,13.33,0.031,219.8
2019-08-19T04:59:20,42.805,6.029,-0.008,-0.001,-0.05,102.0,106.0,100.0,13.3,1505.3,323.3,-0.7,1.8,2470.027,13.32,0.008,262.9
2019-08-19T05:02:21,42.805,6.029,0.009,-0.01,-0.043,102.0,107.0,100.0,13.4,1505.3,327.9,-0.7,1.8,2470.043,13.33,0.013,138.0
2019-08-19T05:05:22,42.805,6.029,0.023,-0.013,-0.033,104.0,106.0,100.0,13.4,1505.3,326.4,-0.8,1.8,2470.001,13.33,0.026,119.5
2019-08-19T05:08:23,42.805,6.029,0.044,-0.008,0.015,103.0,106.0,99.0,13.4,1505.3,324.8,-0.7,1.8,2470.066,13.33,0.044,100.3
2019-08-19T05:11:24,42.805,6.029,-0.004,-0.015,-0.043,102.0,108.0,100.0,13.4,1505.3,328.1,-0.7,1.8,2470.005,13.33,0.015,194.9
2019-08-19T05:14:25,42.805,6.029,0.012,-0.039,-0.041,104.0,106.0,101.0,13.3,1505.3,326.1,-0.7,1.8,2470.041,13.33,0.04,162.9
2019-08-19T05:17:26,42.805,6.029,0.01,-0.016,-0.044,104.0,105.0,99.0,13.3,1505.3,324.6,-0.8,1.9,2470.053,13.33,0.018,148.0
2019-08-19T05:20:27,42.805,6.029,0.027,-0.037,-0.018,104.0,107.0,100.0,13.4,1505.3,325.9,-0.7,1.8,2470.018,13.32,0.045,143.9
2019-08-19T05:23:28,42.805,6.029,0.002,-0.017,0.001,104.0,106.0,101.0,13.3,1505.3,322.8,-0.7,1.8,2470.077,13.32,0.017,173.3
2019-08-19T05:26:29,42.805,6.029,0.003,-0.005,0.002,103.0,105.0,100.0,13.4,1505.3,327.2,-0.7,1.9,2470.084,13.32,0.005,149.0
2019-08-19T05:29:30,42.805,6.029,-0.007,-0.003,-0.029,102.0,105.0,101.0,13.4,1505.3,327.6,-0.7,1.8,2470.078,13.32,0.007,246.8
2019-08-19T05:32:31,42.805,6.029,0.039,0.016,0.039,103.0,106.0,100.0,13.3,1505.3,324.5,-0.7,1.8,2470.067,13.32,0.042,67.7
2019-08-19T05:35:32,42.805,6.029,0.022,-0.003,-0.039,102.0,105.0,100.0,13.4,1505.3,326.3,-0.7,1.8,2470.038,13.32,0.022,97.8
2019-08-19T05:38:33,42.805,6.029,0.021,-0.032,-0.013,102.0,105.0,100.0,13.3,1505.3,324.1,-0.7,1.8,2470.072,13.32,0.038,146.7
2019-08-19T05:41:34,42.805,6.029,0.018,-0.014,-0.018,104.0,104.0,99.0,13.3,1505.3,325.9,-0.7,1.8,2470.046,13.33,0.022,127.9
2019-08-19T05:44:35,42.805,6.029,0.049,-0.034,0.007,103.0,104.0,100.0,13.4,1505.3,326.4,-0.7,1.8,2470.086,13.33,0.059,124.8
2019-08-19T05:47:36,42.805,6.029,0.055,-0.003,0.029,103.0,106.0,100.0,13.4,1505.3,323.9,-0.7,1.8,2470.065,13.33,0.055,93.1
2019-08-19T05:50:37,42.805,6.029,0.031,-0.026,-0.006,104.0,106.0,100.0,13.3,1505.3,325.3,-0.7,1.8,2470.087,13.33,0.04,130.0
2019-08-19T05:53:38,42.805,6.029,-0.004,-0.015,-0.02,104.0,106.0,100.0,13.3,1505.3,325.1,-0.7,1.8,2470.095,13.32,0.015,194.9
2019-08-19T05:56:39,42.805,6.029,0.016,-0.026,-0.064,103.0,106.0,100.0,13.3,1505.3,326.5,-0.7,1.8,2470.046,13.33,0.03,148.4
2019-08-19T05:59:40,42.805,6.029,0.018,-0.007,0.002,105.0,106.0,101.0,13.3,1505.3,327.1,-0.7,1.8,2470.077,13.33,0.019,111.2
2019-08-19T06:02:41,42.805,6.029,0.018,-0.022,-0.025,104.0,107.0,100.0,13.4,1505.3,326.8,-0.7,1.8,2470.11,13.33,0.028,140.7
2019-08-19T06:05:42,42.805,6.029,0.003,-0.01,-0.014,105.0,106.0,99.0,13.4,1505.3,327.7,-0.7,1.8,2470.067,13.33,0.01,163.3
2019-08-19T06:08:43,42.805,6.029,-0.01,-0.001,-0.072,102.0,107.0,100.0,13.4,1505.3,326.9,-0.7,1.8,2470.084,13.33,0.01,264.3
2019-08-19T06:11:44,42.805,6.029,-0.006,-0.022,-0.028,102.0,105.0,99.0,13.4,1505.3,327.5,-0.7,1.8,2470.101,13.33,0.022,195.3
2019-08-19T06:14:45,42.805,6.029,0.041,-0.016,-0.019,103.0,106.0,100.0,13.4,1505.3,324.0,-0.7,1.8,2470.102,13.33,0.044,111.3
2019-08-19T06:17:46,42.805,6.029,0.02,-0.02,-0.017,103.0,105.0,101.0,13.3,1505.3,324.4,-0.7,1.8,2470.082,13.33,0.028,135.0
2019-08-19T06:20:47,42.805,6.029,0.026,-0.018,-0.059,102.0,106.0,100.0,13.3,1505.3,325.6,-0.7,1.8,2470.131,13.33,0.031,124.7
2019-08-19T06:23:48,42.805,6.029,0.011,0.004,-0.035,103.0,106.0,99.0,13.3,1505.3,323.6,-0.7,1.8,2470.16,13.33,0.011,70.0
2019-08-19T06:26:49,42.805,6.029,0.036,-0.031,0.005,105.0,104.0,99.0,13.4,1505.3,326.8,-0.7,1.8,2470.078,13.33,0.047,130.7
2019-08-19T06:29:50,42.805,6.029,0.021,-0.007,-0.016,103.0,106.0,99.0,13.4,1505.3,323.2,-0.7,1.8,2470.144,13.33,0.022,108.4
2019-08-19T06:32:51,42.805,6.029,0.007,0.004,-0.044,103.0,107.0,100.0,13.4,1505.3,324.4,-0.7,1.8,2470.127,13.33,0.008,60.3
2019-08-19T06:35:52,42.805,6.029,0.022,0.007,-0.017,104.0,105.0,100.0,13.4,1505.3,324.2,-0.8,1.8,2470.094,13.33,0.023,72.4
2019-08-19T06:38:53,42.805,6.029,-0.009,-0.019,-0.038,103.0,106.0,100.0,13.4,1505.3,325.9,-0.7,1.8,2470.107,13.33,0.021,205.3
2019-08-19T06:41:54,42.805,6.029,-0.04,-0.013,-0.1,102.0,107.0,100.0,13.4,1505.3,325.3,-0.7,1.8,2470.102,13.33,0.042,252.0
2019-08-19T06:44:55,42.805,6.029,-0.017,-0.01,-0.045,106.0,107.0,100.0,13.3,1505.3,324.0,-0.7,1.8,2470.124,13.33,0.019,239.5
2019-08-19T06:47:56,42.805,6.029,-0.009,-0.02,-0.024,103.0,106.0,99.0,13.3,1505.3,326.4,-0.7,1.9,2470.11,13.33,0.021,204.2
2019-08-19T06:50:57,42.805,6.029,0.014,-0.01,-0.019,103.0,109.0,101.0,13.3,1505.3,325.7,-0.7,1.8,2470.112,13.33,0.017,125.5
2019-08-19T06:53:58,42.805,6.029,0.015,-0.009,0.007,103.0,107.0,101.0,13.4,1505.3,326.6,-0.7,1.8,2470.096,13.33,0.017,121.0
2019-08-19T06:56:59,42.805,6.029,-0.029,0.001,-0.051,104.0,106.0,100.0,13.4,1505.3,325.0,-0.7,1.8,2470.124,13.33,0.029,272.0
2019-08-19T07:00:00,42.805,6.029,0.032,-0.016,-0.021,104.0,106.0,99.0,13.3,1505.3,323.7,-0.7,1.8,2470.107,13.33,0.035,116.6
2019-08-19T07:03:01,42.805,6.029,0.024,-0.018,0.0,103.0,107.0,99.0,13.3,1505.3,328.5,-0.7,1.9,2470.128,13.33,0.03,126.9
2019-08-19T07:06:02,42.805,6.029,-0.036,-0.02,-0.024,103.0,105.0,101.0,13.4,1505.3,324.6,-0.7,1.9,2470.064,13.33,0.041,240.9
2019-08-19T07:09:03,42.805,6.029,-0.032,-0.027,-0.069,103.0,105.0,100.0,13.3,1505.3,323.0,-0.7,1.9,2470.122,13.33,0.041,229.8
2019-08-19T07:12:04,42.805,6.029,-0.012,-0.015,-0.03,104.0,105.0,100.0,13.3,1505.3,325.4,-0.7,1.8,2470.093,13.33,0.019,218.7
2019-08-19T07:15:05,42.805,6.029,-0.012,-0.02,-0.071,104.0,106.0,100.0,13.4,1505.3,324.0,-0.7,1.8,2470.066,13.33,0.023,211.0
2019-08-19T07:18:06,42.805,6.029,0.022,-0.01,-0.004,102.0,106.0,99.0,13.3,1505.3,324.6,-0.7,1.8,2470.164,13.33,0.024,114.4
2019-08-19T07:21:07,42.805,6.029,0.015,-0.003,-0.01,103.0,106.0,100.0,13.4,1505.3,324.2,-0.7,1.8,2470.173,13.33,0.015,101.3
2019-08-19T07:24:08,42.805,6.029,-0.014,-0.012,-0.069,102.0,105.0,100.0,13.4,1505.3,326.9,-0.7,1.8,2470.096,13.33,0.018,229.4
2019-08-19T07:27:09,42.805,6.029,-0.036,-0.03,-0.07,104.0,108.0,100.0,13.4,1505.3,323.2,-0.7,1.8,2470.131,13.33,0.046,230.2
2019-08-19T07:30:10,42.805,6.029,0.005,-0.016,-0.064,103.0,105.0,98.0,13.3,1505.3,324.9,-0.7,1.9,2470.129,13.33,0.016,162.6
2019-08-19T07:33:11,42.805,6.029,0.009,-0.032,-0.05,104.0,107.0,99.0,13.4,1505.3,326.0,-0.7,1.8,2470.152,13.33,0.033,164.3
2019-08-19T07:36:12,42.805,6.029,0.043,-0.005,-0.023,103.0,106.0,99.0,13.4,1505.3,325.2,-0.7,1.8,2470.124,13.33,0.043,96.6
2019-08-19T07:39:13,42.805,6.029,-0.016,-0.007,-0.044,103.0,105.0,99.0,13.4,1505.3,325.5,-0.7,1.8,2470.175,13.32,0.017,246.4
2019-08-19T07:42:14,42.805,6.029,0.025,-0.019,-0.033,102.0,106.0,100.0,13.4,1505.3,325.6,-0.7,1.8,2470.177,13.33,0.031,127.2
2019-08-19T07:45:15,42.805,6.029,-0.026,-0.005,-0.042,103.0,106.0,98.0,13.4,1505.3,326.5,-0.7,1.8,2470.145,13.33,0.026,259.1
2019-08-19T07:48:16,42.805,6.029,-0.019,-0.002,-0.038,103.0,105.0,100.0,13.4,1505.3,326.3,-0.7,1.8,2470.161,13.33,0.019,264.0
2019-08-19T07:51:17,42.805,6.029,0.028,-0.014,-0.023,103.0,104.0,99.0,13.4,1505.3,325.4,-0.7,1.9,2470.132,13.33,0.031,116.6
2019-08-19T07:54:18,42.805,6.029,0.007,-0.004,-0.016,102.0,106.0,99.0,13.4,1505.3,323.7,-0.7,1.8,2470.104,13.33,0.008,119.7
2019-08-19T07:57:19,42.805,6.029,-0.01,-0.013,-0.064,103.0,106.0,100.0,13.4,1505.3,327.0,-0.7,1.9,2470.157,13.33,0.016,217.6
2019-08-19T08:00:20,42.805,6.029,0.026,-0.004,0.001,103.0,105.0,98.0,13.3,1505.3,324.8,-0.7,1.8,2470.162,13.33,0.026,98.7
2019-08-19T08:03:21,42.805,6.029,0.021,-0.023,-0.03,103.0,105.0,99.0,13.3,1505.3,326.3,-0.7,1.8,2470.124,13.33,0.031,137.6
2019-08-19T08:06:22,42.805,6.029,-0.013,-0.035,-0.063,103.0,105.0,99.0,13.3,1505.3,326.9,-0.8,1.8,2470.16,13.33,0.037,200.4
2019-08-19T08:09:23,42.805,6.029,0.014,0.014,-0.013,102.0,105.0,98.0,13.4,1505.3,324.2,-0.8,1.8,2470.14,13.33,0.019,45.0
2019-08-19T08:12:24,42.805,6.029,0.021,-0.014,0.0,103.0,104.0,99.0,13.4,1505.3,324.1,-0.7,1.9,2470.132,13.33,0.025,123.7
2019-08-19T08:15:25,42.805,6.029,-0.021,-0.018,-0.024,102.0,105.0,98.0,13.3,1505.3,323.9,-0.7,1.8,2470.16,13.33,0.027,229.4
2019-08-19T08:18:26,42.805,6.029,0.041,-0.01,-0.008,102.0,105.0,101.0,13.4,1505.3,326.1,-0.7,1.9,2470.187,13.33,0.042,103.7
2019-08-19T08:21:27,42.805,6.029,0.014,-0.01,-0.008,103.0,105.0,99.0,13.3,1505.3,325.0,-0.7,1.8,2470.113,13.33,0.017,125.5
2019-08-19T08:24:28,42.805,6.029,0.009,-0.012,-0.025,102.0,103.0,98.0,13.4,1505.3,327.5,-0.7,1.8,2470.153,13.33,0.015,143.1
2019-08-19T08:27:29,42.805,6.029,0.027,0.01,0.011,104.0,104.0,99.0,13.3,1505.3,323.8,-0.7,1.8,2470.172,13.33,0.028,69.7
2019-08-19T08:30:30,42.805,6.029,-0.004,-0.006,-0.024,102.0,105.0,100.0,13.3,1505.3,324.4,-0.7,1.8,2470.182,13.33,0.007,213.7
2019-08-19T08:33:31,42.805,6.029,-0.01,-0.029,-0.077,103.0,106.0,99.0,13.4,1505.3,323.3,-0.7,1.8,2470.164,13.33,0.03,199.0
2019-08-19T08:36:32,42.805,6.029,-0.003,-0.001,-0.049,102.0,107.0,100.0,13.4,1505.3,325.8,-0.7,1.8,2470.194,13.33,0.003,251.6
2019-08-19T08:39:33,42.805,6.029,0.0,-0.017,-0.01,102.0,108.0,100.0,13.4,1505.3,327.1,-0.7,1.9,2470.193,13.33,0.017,180.0
2019-08-19T08:42:34,42.805,6.029,-0.009,-0.012,-0.069,102.0,108.0,99.0,13.4,1505.3,327.1,-0.7,1.8,2470.161,13.33,0.015,216.9
2019-08-19T08:45:35,42.805,6.029,-0.019,-0.019,-0.034,102.0,107.0,99.0,13.4,1505.3,326.6,-0.8,1.9,2470.136,13.33,0.026,225.0
2019-08-19T08:48:36,42.805,6.029,0.012,-0.023,-0.019,102.0,106.0,99.0,13.4,1505.3,324.5,-0.7,1.8,2470.153,13.33,0.025,152.4
2019-08-19T08:51:37,42.805,6.029,-0.008,-0.009,-0.046,104.0,107.0,98.0,13.3,1505.3,326.7,-0.8,1.9,2470.186,13.33,0.012,221.6
2019-08-19T08:54:38,42.805,6.029,0.008,-0.006,-0.034,102.0,105.0,99.0,13.4,1505.3,327.4,-0.7,1.8,2470.164,13.33,0.01,126.9
2019-08-19T08:57:39,42.805,6.029,0.017,0.005,-0.019,104.0,104.0,100.0,13.4,1505.3,327.7,-0.7,1.8,2470.112,13.33,0.017,73.6
2019-08-19T09:00:40,42.805,6.029,-0.017,0.003,-0.044,103.0,106.0,98.0,13.4,1505.3,324.2,-0.7,1.8,2470.194,13.33,0.017,280.0
2019-08-19T09:03:41,42.805,6.029,0.018,-0.016,-0.03,102.0,105.0,99.0,13.3,1505.3,326.5,-0.7,1.8,2470.152,13.33,0.024,131.6
2019-08-19T09:06:42,42.805,6.029,0.016,-0.005,-0.047,102.0,105.0,99.0,13.4,1505.3,327.7,-0.7,1.8,2470.167,13.33,0.016,107.4
2019-08-19T09:09:43,42.805,6.029,0.017,-0.021,-0.03,103.0,106.0,100.0,13.3,1505.3,323.5,-0.7,1.9,2470.168,13.33,0.027,141.0
2019-08-19T09:12:44,42.805,6.029,0.028,-0.015,-0.014,104.0,104.0,101.0,13.3,1505.3,324.9,-0.7,1.8,2470.137,13.33,0.031,118.2
2019-08-19T09:15:45,42.805,6.029,0.039,-0.012,0.014,103.0,105.0,99.0,13.4,1505.3,323.9,-0.7,1.9,2470.178,13.33,0.04,107.1
2019-08-19T09:18:46,42.805,6.029,0.037,-0.012,-0.035,103.0,105.0,99.0,13.4,1505.3,324.4,-0.7,1.8,2470.201,13.33,0.038,108.0
2019-08-19T09:21:47,42.805,6.029,0.014,-0.016,-0.018,103.0,105.0,100.0,13.4,1505.3,326.6,-0.7,1.8,2470.205,13.33,0.021,138.8
2019-08-19T09:24:48,42.805,6.029,0.022,-0.016,-0.03,102.0,105.0,99.0,13.3,1505.3,323.7,-0.8,1.8,2470.178,13.33,0.027,126.0
2019-08-19T09:27:49,42.805,6.029,0.016,-0.027,0.007,103.0,105.0,100.0,13.3,1505.3,327.8,-0.7,1.8,2470.187,13.33,0.031,149.3